Location: Salamanca
(40.9670°N, 5.6500°W)
Time: 15:23:37
(UTC+01:00)

ISS - Visible Passes

Search period start: 23 March 2017 00:00
Search period end: 02 April 2017 01:00
Orbit: 399 x 409 km, 51.6° (Epoch: 23 March)

Date Brightness Start Highest point End Pass type
(mag) Time Alt. Az. Time Alt. Az. Time Alt. Az.
23 Mar -3.5 06:02:46 36° W 06:03:33 45° SW 06:06:43 10° SSE visible
24 Mar -1.6 05:13:27 20° SE 05:13:27 20° SE 05:14:35 10° SE visible
25 Mar -1.4 05:57:07 12° S 05:57:07 12° S 05:57:33 10° S visible
26 Mar -1.7 22:39:06 10° SW 22:40:13 20° SW 22:40:13 20° SW visible
27 Mar -3.2 21:47:02 10° SSW 21:50:03 36° SE 21:51:11 26° E visible
27 Mar -0.5 23:23:37 10° W 23:23:55 12° W 23:23:55 12° W visible
28 Mar -3.0 22:30:53 10° WSW 22:34:03 48° NNW 22:34:36 42° N visible
29 Mar -3.9 21:38:22 10° SW 21:41:37 89° NW 21:44:54 10° NE visible
29 Mar -1.0 23:16:03 10° WNW 23:17:43 18° NW 23:17:43 18° NW visible
30 Mar -1.8 22:23:03 10° W 22:25:52 26° NNW 22:27:55 15° NNE visible
31 Mar -2.5 21:30:13 10° WSW 21:33:18 40° NNW 21:36:25 10° NE visible
31 Mar -1.0 23:08:33 10° NW 23:10:27 14° N 23:10:36 14° N visible
01 Apr -1.2 22:15:27 10° WNW 22:17:45 17° NNW 22:20:03 10° NNE visible
